Home   Weather   Spokane   Past weeks

Flag for USA Past Weather in Spokane, Washington, USA — Yesterday and Last 2 Weeks

Now
49 °F

Mostly cloudy.


Feels Like: 43 °F
Forecast: 38 / 52 °F
Wind: 15 mph from Southwest

Location: Felts Field

Current Time: Apr 27, 2017 at 4:02:25 pm

Latest Report: Apr 27, 2017 at 2:53 pm


Visibility: 8 mi

Pressure: 29.91 "Hg (27.92 "Hg at 569m altitude)

Humidity: 61%

Dew Point: 36 °F

Location of SpokaneLocation

Past Weather in Spokane — Graph

°F

Spokane Temperature Yesterday

Maximum temperature yesterday: 57 °F (at 1:53 pm)
Minimum temperature yesterday: 41 °F (at 11:53 pm)
Average temperature yesterday: 48 °F

High & Low Weather Summary for the Past Weeks

 TemperatureHumidityPressure
High66 °F (Apr 22, 12:53 pm)100% (Apr 12, 11:53 pm)30.39 "Hg (Apr 12, 11:53 pm)
Low30 °F (Apr 16, 4:53 am)27% (Apr 22, 1:53 pm)29.62 "Hg (Apr 13, 3:53 am)
Average48 °F72%29.94 "Hg
* Reported Apr 12 2:53 pm — Apr 27 2:53 pm, Spokane, Weather by CustomWeather, © 2017

Note: Actual official high and low records may vary slightly from our data, if they occured in-between our weather recording intervals... More about our weather records

Advertising

Spokane Weather History for the Previous 24 Hours

Scroll right to see more
 ConditionsComfort  
Time TempWeatherWind HumidityBarometerVisibility
2:53 pm
Thu, Apr 27
49 °FMostly cloudy.15 mph61%29.91 "Hg8 mi
1:53 pm48 °FMostly cloudy.10 mph61%29.90 "Hg10 mi
12:53 pm48 °FMostly cloudy.6 mph54%29.89 "Hg10 mi
11:53 am49 °FMostly cloudy.15 mph55%29.89 "Hg10 mi
10:53 am49 °FPartly sunny.13 mph59%29.89 "Hg10 mi
9:53 am45 °FOvercast.10 mph60%29.89 "Hg10 mi
8:53 am43 °FScattered clouds.13 mph68%29.90 "Hg10 mi
7:53 am41 °FScattered clouds.13 mph74%29.88 "Hg10 mi
6:53 am38 °FBroken clouds.6 mph76%29.86 "Hg10 mi
5:53 am38 °FBroken clouds.8 mph79%29.83 "Hg10 mi
4:53 am38 °FPassing clouds.10 mph79%29.82 "Hg10 mi
3:53 am38 °FClear.7 mph79%29.80 "Hg10 mi
2:53 am37 °FClear.No wind96%29.78 "Hg10 mi
1:53 am40 °FOvercast.N/A89%29.76 "Hg10 mi
12:53 am43 °FMostly cloudy.6 mph76%29.75 "Hg10 mi
11:53 pm
Wed, Apr 26
41 °FPassing clouds.3 mph96%29.74 "Hg9 mi
10:53 pm42 °FPassing clouds.3 mph100%29.73 "Hg10 mi
9:53 pm44 °FOvercast.5 mph93%29.73 "Hg10 mi
9:29 pm43 °FMostly cloudy.No wind89%29.72 "Hg10 mi
8:53 pm43 °FThundershowers. Mostly cloudy.6 mph89%29.73 "Hg8 mi
8:44 pm43 °FStrong thunderstorms. Fog.8 mph86%29.72 "Hg2 mi
8:08 pm49 °FThunderstorms. Overcast.No wind71%29.68 "Hg10 mi
7:44 pm51 °FThundershowers. Mostly cloudy.9 mph69%29.67 "Hg10 mi
5:53 pm52 °FLight rain. Partly sunny.15 mph69%29.66 "Hg10 mi
4:53 pm54 °FPartly sunny.18 mph57%29.65 "Hg10 mi
Weather by CustomWeather, © 2017

See weather overviewHow to use our weather pages